SCP
0 0 0 0 0 0 0 0 0 0 0 0 0 0 0 0 0 0 0 0 0 0 0 0 0 0 0 0 0 0 0 0 0 0 0 0 0 0 0 0 0 0 0
0 0 0 0 0 0 0 0 0 0 0 0 0 0 0 0 0 0 0 0 0 0 0 0 0 0 0 0 0 0 0 0 0 0 0 0 0 0 0 0 0 0 0
0 0 0 0 0 0 0 0 0 0 0 0 0 0 0 0 0 0 0 0 0 0 0 0 0 0 0 0 0 0 0 0 0 0 0 0 0 0 0 0 0 0 0
0 0 0 0 0 0 0 0 0 0 0 0 0 0 0 0 0 0 0 0 0 0 0 0 0 0 0 0 0 0 0 0 0 0 0 0 0 0 0 0 0 0 0
0 0 0 0 0 0 0 0 0 0 0 0 0 0 0 0 0 0 0 0 0 0 0 0 0 0 0 0 0 0 0 0 0 0 0 0 0 0 0 0 0 0 0
0 0 0 0 0 0 0 0 0 0 0 0 0 0 0 0 0 0 0 0 0 0 0 0 0 0 0 0 0 0 0 0 0 0 0 0 0 0 0 0 0 0 0
0 0 0 0 0 0 0 0 0 0 0 0 0 0 0 0 0 0 0 0 0 0 0 0 0 0 0 0 0 0 0 0 0 0 0 0 0 0 0 0 0 0 0
0 0 0 0 0 0 0 0 0 0 0 0 0 0 0 0 0 0 0 0 0 0 0 0 0 0 0 0 0 0 0 0 0 0 0 0 0 0 0 0 0 0 0
0 0 0 0 0 0 0 0 0 0 0 0 0 0 0 0 0 0 0 0 0 0 0 0 0 0 0 0 0 0 0 0 0 0 0 0 0 0 0 -0 -0 0 0
0 0 0 0 0 0 0 0 0 0 0 0 0 0 0 0 0 0 0 0 0 0 0 0 0 0 0 0 0 0 0 0 0 0 0 0 0 0 0 -0 0 0 0
0 0 0 0 0 0 0 0 0 0 0 0 0 0 0 0 0 0 0 0 0 0 0 0 0 0 0 0 0 0 0 0 0 0 0 0 0 0 0 -0 0 0 0
0 0 0 0 0 0 0 0 0 0 0 0 0 0 0 0 0 0 0 0 0 0 0 0 0 0 0 0 0 0 0 0 0 0 0 0 0 0 0 0 0 0 0
0 0 0 0 0 0 0 0 0 0 0 0 0 0 0 0 0 0 0 0 0 0 0 0 0 0 0 0 0 0 0 0 0 0 0 0 0 0 0 0 0 0 0
0 0 0 0 0 0 0 0 0 0 0 0 0 0 0 0 0 0 0 0 0 0 0 0 0 0 0 0 0 0 0 0 0 0 0 0 0 0 0 0 0 0 0
0 0 0 0 0 0 0 0 0 0 0 0 0 0 0 0 0 0 0 0 0 0 0 0 0 0 0 0 0 0 0 0 0 0 0 0 0 0 0 0 0 0 0
0 0 0 0 0 0 0 0 0 0 0 0 0 0 0 0 0 0 0 0 0 0 0 0 0 0 0 0 0 0 0 0 0 0 0 0 0 0 0 0 0 0 0
0 0 0 0 0 0 0 0 0 0 0 0 0 0 0 0 0 0 0 0 0 0 0 0 0 0 0 0 0 0 0 0 0 0 0 0 0 0 0 0 0 0 0
0 0 0 0 0 0 0 0 0 0 0 0 0 0 0 0 0 0 0 0 0 0 0 0 0 0 0 0 0 0 0 0 0 0 0 0 0 0 0 0 0 0 0
0 0 0 0 0 0 0 0 0 0 0 0 0 0 0 0 0 0 0 0 0 0 0 0 0 0 0 0 0 0 0 0 0 0 0 0 0 0 0 0 0 0 0
0 0 0 0 0 0 0 0 0 0 0 0 0 0 0 0 0 0 0 0 0 0 0 0 0 0 0 0 0 0 0 0 0 0 0 0 0 0 0 0 0 0 0
0 0 0 0 0 0 0 0 0 0 0 0 0 0 0 0 0 0 0 0 0 0 0 0 0 0 0 0 0 0 0 0 0 0 0 0 0 0 0 0 0 0 0
0 0 0 0 0 0 0 0 0 0 0 0 0 0 0 0 0 0 0 0 0 0 0 0 0 0 0 0 0 0 0 0 0 0 0 0 0 0 0 0 0 0 0
0 0 0 0 0 0 0 0 0 0 0 0 0 0 0 0 0 0 0 0 0 0 0 0 0 0 0 0 0 0 0 0 0 0 0 0 0 0 0 0 0 0 0
0 0 0 0 0 0 0 0 0 0 0 0 0 0 0 0 0 0 0 0 0 0 0 0 0 0 0 0 0 0 0 0 0 0 0 0 0 0 0 0 0 0 0
0 0 0 0 0 0 0 0 0 0 0 0 0 0 0 0 0 0 0 0 0 0 0 0 0 0 0 0 0 0 0 0 0 0 0 0 0 0 0 0 0 0 0
0 0 0 0 0 0 0 0 0 0 0 0 0 0 0 0 0 0 0 0 0 0 0 0 0 0 0 0 0 0 0 0 0 0 0 0 0 0 0 0 0 0 0
Wind_Speed
3 4 4 5 5 7 7 7 7 6 5 5 6 7 8 9 10 10 13 13 13 13 11 9 10 10 9 10 9 6 7 8 7 5 4 2 2 5 5 5 5 7 7
5 4 4 5 6 7 7 7 7 7 7 7 7 7 9 9 9 9 12 14 14 13 11 12 10 10 9 12 12 10 7 7 8 6 5 4 1 4 5 5 5 7 8
7 6 5 5 6 7 7 6 8 9 10 10 9 9 8 7 8 10 10 13 14 14 13 14 12 11 11 10 12 11 12 8 8 9 7 5 6 7 3 5 5 9 9
8 7 6 6 6 6 6 7 8 9 9 8 9 10 9 9 8 8 9 11 12 13 13 13 12 11 10 11 10 11 9 9 7 6 7 6 5 6 7 5 5 9 10
10 8 7 6 6 6 6 7 9 10 10 10 11 13 13 11 9 9 11 10 10 11 11 11 10 10 9 10 10 9 9 7 7 6 5 5 4 5 5 9 10 9 7
10 9 7 6 6 6 7 8 10 10 10 11 11 13 15 13 12 10 9 8 6 7 10 9 9 9 8 8 8 7 8 7 7 5 5 4 4 5 6 9 12 12 10
12 11 10 9 8 8 8 8 10 11 10 11 11 12 13 13 12 10 8 7 6 6 7 7 7 7 7 7 6 6 6 7 6 5 4 4 4 5 6 9 11 13 12
13 13 12 10 9 9 9 10 11 11 11 11 11 10 10 8 8 8 7 7 5 5 6 6 6 6 6 5 5 4 5 5 5 5 5 4 4 5 6 7 9 12 11
15 14 12 11 11 11 10 11 11 11 10 10 10 10 9 9 9 8 7 6 5 5 5 5 5 5 5 5 5 4 4 4 5 5 6 5 5 5 5 6 7 8 12
16 15 13 13 12 11 11 11 11 11 11 10 9 8 9 9 8 7 7 6 6 5 4 3 3 3 4 4 4 4 4 5 5 5 6 6 5 6 6 6 7 8 11
18 16 14 13 13 12 12 12 11 11 11 10 9 9 9 8 8 7 7 6 5 4 3 2 2 2 2 3 4 4 5 6 6 6 7 8 8 7 7 7 8 8 10
17 16 14 14 14 14 13 13 12 12 11 10 10 9 9 8 7 7 7 6 5 4 3 2 1 1 2 3 4 4 5 6 7 8 8 9 7 9 8 8 9 9 11
16 15 14 15 15 15 15 14 14 13 12 11 11 10 9 9 8 7 6 6 5 4 3 3 2 2 3 4 4 5 6 7 8 8 9 10 10 10 9 10 11 10 10
16 16 16 15 15 15 15 15 15 14 13 12 12 11 11 10 9 7 7 6 5 5 5 4 4 4 4 5 5 6 7 8 8 8 9 10 10 11 12 11 12 11 12
16 17 16 14 14 14 15 15 15 14 14 13 13 12 10 9 8 8 7 6 6 5 5 5 4 5 5 4 6 7 8 9 9 9 9 10 12 15 13 12 12 13 12
16 16 14 13 14 15 15 15 15 14 14 14 14 11 9 9 9 8 8 7 7 6 6 6 6 6 5 6 9 9 9 9 10 10 10 10 11 13 17 19 20 18 15
14 14 13 13 12 13 13 14 14 12 11 11 10 8 9 10 10 9 9 9 8 7 7 7 7 7 7 9 10 11 10 10 9 10 10 9 9 12 13 16 19 18 20
11 11 10 10 10 10 10 10 9 9 10 11 10 10 10 10 10 10 10 9 7 7 7 7 7 7 7 10 11 12 10 9 9 10 11 12 12 12 15 15 16 16 16
10 10 9 9 8 9 9 8 8 9 10 11 11 11 11 11 11 11 10 8 7 7 7 6 7 7 8 10 11 12 8 8 9 10 11 12 13 18 21 18 17 18 17
8 8 8 7 8 8 8 9 9 9 11 11 10 9 10 11 11 11 9 7 7 6 6 6 6 7 8 10 11 11 6 7 8 9 10 13 16 20 23 18 17 19 18
8 8 8 8 8 8 8 9 9 11 10 7 7 8 9 10 9 8 7 6 6 6 6 7 7 7 8 9 10 10 6 7 9 9 9 9 18 23 25 24 18 21 22
8 8 9 9 8 8 9 9 11 9 7 7 8 8 8 8 7 8 7 6 6 6 7 7 7 6 6 8 9 11 11 11 10 10 9 11 21 24 26 21 21 26 22
9 8 8 8 7 8 9 11 9 7 8 8 8 8 8 7 7 8 7 6 6 6 6 6 6 5 4 6 10 11 12 13 10 9 15 18 21 22 17 19 23 17 10
8 7 8 8 8 9 10 11 6 8 9 9 9 8 8 8 7 6 6 6 7 7 6 6 6 5 4 5 5 5 7 9 9 8 8 13 15 14 13 12 11 8 9
7 7 9 11 11 9 10 8 7 9 9 9 8 8 8 8 7 7 7 8 7 7 7 6 5 5 5 6 9 8 7 7 6 5 4 6 6 7 7 8 8 8 9
7 8 10 10 10 7 8 7 8 9 9 8 8 7 6 6 6 6 6 12 12 13 16 15 12 9 12 13 13 13 13 10 7 4 4 5 6 7 8 9 9 9 9
Wind_Direction
83 61 54 54 64 61 65 70 78 78 92 90 85 78 69 63 59 52 49 49 49 51 54 57 52 49 49 42 33 32 36 25 357 336 331 4 65 54 47 40 39 37 24
139 101 80 75 72 72 73 77 78 81 83 90 91 87 90 75 70 64 56 54 54 52 53 55 55 50 52 46 38 33 32 35 23 1 338 342 11 26 21 30 28 19 6
152 134 109 91 84 75 73 81 86 88 91 99 103 107 99 88 73 65 60 54 58 59 59 59 59 54 52 49 42 36 36 36 36 30 13 358 347 329 338 6 4 1 348
159 146 134 113 95 85 88 92 93 94 98 108 112 110 104 98 90 84 79 69 60 60 60 61 60 58 55 52 46 42 39 38 33 30 29 25 350 333 322 322 348 345 334
162 152 140 123 107 102 102 103 100 95 97 101 106 106 104 105 106 100 90 80 68 61 59 59 60 58 54 50 47 43 41 38 34 27 11 4 359 355 315 314 324 324 326
164 155 144 139 127 120 115 114 109 102 104 107 108 111 115 119 116 109 102 89 80 68 61 60 60 56 52 46 42 42 42 36 33 26 20 2 347 339 323 312 316 316 318
171 168 166 161 150 140 130 126 121 115 116 115 113 115 117 118 116 114 108 104 92 78 65 62 60 56 50 44 39 39 36 29 24 16 1 350 338 325 313 305 310 309 311
181 180 177 170 161 154 148 142 135 130 130 125 122 121 121 117 116 115 115 107 100 91 84 73 67 60 50 40 33 34 26 12 6 359 348 331 326 319 312 307 311 309 305
187 186 181 178 172 168 164 157 150 145 143 138 134 132 130 128 128 126 120 114 112 109 97 83 72 59 45 31 22 18 9 354 348 340 333 323 314 308 302 297 294 297 304
189 190 187 184 181 176 171 168 165 159 154 151 147 144 143 141 139 138 134 130 128 127 120 101 76 54 35 17 7 355 349 338 335 328 322 320 314 306 299 293 288 280 283
192 192 190 187 182 179 178 177 176 171 168 166 161 157 155 153 150 146 146 145 143 143 136 116 85 38 8 355 339 336 330 325 321 319 316 312 311 307 304 299 290 284 282
194 192 189 185 185 186 186 186 185 184 181 176 173 169 164 163 164 161 158 159 160 159 158 163 196 298 315 317 313 313 313 311 311 313 310 308 310 306 302 298 295 292 288
193 193 192 192 193 192 191 192 193 192 186 183 182 179 178 179 178 173 170 175 180 185 191 210 233 260 283 292 291 295 299 299 300 301 302 304 305 301 301 299 295 293 291
195 196 198 198 197 196 195 196 198 195 190 190 192 192 192 190 185 179 181 188 197 205 212 222 237 255 271 276 280 289 292 293 292 293 293 295 295 297 300 297 294 294 295
199 201 201 200 197 198 199 200 200 197 194 195 200 204 199 193 186 184 186 192 204 216 223 231 239 248 258 261 279 292 291 293 294 292 290 289 291 291 291 290 294 296 294
201 201 201 198 199 200 201 202 203 199 196 201 206 206 196 189 190 189 188 194 203 211 222 231 237 246 250 264 279 290 293 291 289 291 292 290 285 286 291 291 291 290 288
198 196 197 197 199 200 200 202 203 196 194 202 205 198 194 197 197 192 192 199 203 209 221 230 234 243 253 265 278 288 291 286 285 287 289 289 289 292 291 293 293 289 283
191 191 189 190 192 192 195 196 191 186 193 205 208 203 201 203 197 194 201 202 201 209 221 228 235 246 251 265 282 291 286 280 279 281 284 288 291 293 295 294 290 286 282
184 181 179 175 175 180 179 173 178 185 197 208 211 206 201 200 197 201 204 200 202 212 220 226 231 242 256 268 281 286 283 277 280 281 282 285 289 293 297 296 293 291 287
174 167 160 160 171 173 163 169 182 189 205 211 210 201 196 198 201 203 199 197 203 217 223 233 234 244 255 267 275 281 277 281 285 285 283 283 290 296 300 298 295 293 294
173 165 166 177 185 171 165 182 191 206 211 197 187 187 191 195 196 191 189 190 204 220 230 242 244 244 248 262 269 273 271 278 288 291 294 295 300 302 302 301 297 297 304
176 175 182 195 190 172 177 195 210 210 182 172 179 183 182 181 178 179 184 192 205 222 234 242 248 237 237 247 261 270 277 285 288 290 294 297 304 307 309 309 306 310 312
190 188 193 201 196 187 192 208 216 179 165 173 181 178 173 177 175 182 188 195 206 226 236 236 245 241 233 246 263 275 282 285 284 285 293 305 312 316 314 310 313 316 310
197 191 192 209 217 205 206 219 197 162 169 182 184 177 179 185 185 195 199 204 209 220 231 236 243 246 244 248 253 261 272 279 285 294 312 318 315 313 310 312 314 311 305
201 193 202 215 224 210 209 208 180 168 182 188 185 186 190 193 193 203 211 214 222 225 231 236 238 245 252 250 262 275 283 290 303 331 322 313 316 317 316 314 311 309 307
201 201 210 219 224 209 206 192 177 178 183 188 190 190 191 192 200 208 225 235 239 244 247 248 248 248 255 273 278 285 291 305 332 334 302 302 303 306 310 312 312 312 310